Location: *
(51.1248°S, 108.4023°W)
Time: 06:12:46
(UTC+00:00)

N. Korean satellite - Pass Details

Date: 28 September 2021
Orbit: 450 x 495 km, 97.3° (Epoch: 18 October)

Event Time Altitude Azimuth Distance (km) Brightness Sun altitude
Rises 11:55:40 0° 360° (N) 2,592 10.1 -8.9°
Reaches altitude 10° 11:57:48 10° 353° (N) 1,715 9.1 -8.6°
Maximum altitude 12:01:22 45° 279° (W) 695 6.9 -8.0°
Drops below altitude 10° 12:04:58 10° 204° (SSW) 1,726 9.2 -7.5°
Sets 12:07:08 0° 198° (SSW) 2,612 10.2 -7.1°
